Year,Month,Day,Hour,Minute,Value (Times are PST for temperature in C)
2014,11,15,00,00,-2.60
2014,11,15,00,01,-2.60
2014,11,15,00,02,-2.60
2014,11,15,00,03,-2.60
2014,11,15,00,04,-2.60
2014,11,15,00,05,-2.60
2014,11,15,00,06,-2.60
2014,11,15,00,07,-2.70
2014,11,15,00,08,-2.70
2014,11,15,00,09,-2.70
2014,11,15,00,10,-2.70
2014,11,15,00,11,-2.70
2014,11,15,00,12,-2.70
2014,11,15,00,13,-2.70
2014,11,15,00,14,-2.70
2014,11,15,00,15,-2.70
2014,11,15,00,16,-2.70
2014,11,15,00,17,-2.70
2014,11,15,00,18,-2.70
2014,11,15,00,19,-2.70
2014,11,15,00,20,-2.60
2014,11,15,00,21,-2.60
2014,11,15,00,22,-2.60
2014,11,15,00,23,-2.60
2014,11,15,00,24,-2.60
2014,11,15,00,25,-2.60
2014,11,15,00,26,-2.60
2014,11,15,00,27,-2.60
2014,11,15,00,28,-2.60
2014,11,15,00,29,-2.60
2014,11,15,00,30,-2.60
2014,11,15,00,31,-2.70
2014,11,15,00,32,-2.70
2014,11,15,00,33,-2.70
2014,11,15,00,34,-2.70
2014,11,15,00,35,-2.70
2014,11,15,00,36,-2.70
2014,11,15,00,37,-2.70
2014,11,15,00,38,-2.80
2014,11,15,00,39,-2.80
2014,11,15,00,40,-2.80
2014,11,15,00,41,-2.90
2014,11,15,00,42,-2.90
2014,11,15,00,43,-2.90
2014,11,15,00,44,-2.90
2014,11,15,00,45,-2.90
2014,11,15,00,46,-3.00
2014,11,15,00,47,-3.00
2014,11,15,00,48,-3.00
2014,11,15,00,49,-3.00
2014,11,15,00,50,-3.00
2014,11,15,00,51,-3.00
2014,11,15,00,52,-3.00
2014,11,15,00,53,-3.00
2014,11,15,00,54,-3.00
2014,11,15,00,55,-3.00
2014,11,15,00,56,-3.00
2014,11,15,00,57,-3.00
2014,11,15,00,58,-3.00
2014,11,15,00,59,-3.10
2014,11,15,01,00,-3.10
2014,11,15,01,01,-3.10
2014,11,15,01,02,-3.10
2014,11,15,01,03,-3.10
2014,11,15,01,04,-3.10
2014,11,15,01,05,-3.10
2014,11,15,01,06,-3.10
2014,11,15,01,07,-3.10
2014,11,15,01,08,-3.10
2014,11,15,01,09,-3.10
2014,11,15,01,10,-3.10
2014,11,15,01,11,-3.10
2014,11,15,01,12,-3.10
2014,11,15,01,13,-3.10
2014,11,15,01,14,-3.10
2014,11,15,01,15,-3.10
2014,11,15,01,16,-3.10
2014,11,15,01,17,-3.10
2014,11,15,01,18,-3.10
2014,11,15,01,19,-3.10
2014,11,15,01,20,-3.10
2014,11,15,01,21,-3.10
2014,11,15,01,22,-3.10
2014,11,15,01,23,-3.10
2014,11,15,01,24,-3.10
2014,11,15,01,25,-3.10
2014,11,15,01,26,-3.10
2014,11,15,01,27,-3.10
2014,11,15,01,28,-3.10
2014,11,15,01,29,-3.10
2014,11,15,01,30,-3.10
2014,11,15,01,31,-3.10
2014,11,15,01,32,-3.10
2014,11,15,01,33,-3.10
2014,11,15,01,34,-3.10
2014,11,15,01,35,-3.10
2014,11,15,01,36,-3.20
2014,11,15,01,37,-3.20
2014,11,15,01,38,-3.10
2014,11,15,01,39,-3.10
2014,11,15,01,40,-3.10
2014,11,15,01,41,-3.10
2014,11,15,01,42,-3.10
2014,11,15,01,43,-3.10
2014,11,15,01,44,-3.10
2014,11,15,01,45,-3.10
2014,11,15,01,46,-3.10
2014,11,15,01,47,-3.10
2014,11,15,01,48,-3.10
2014,11,15,01,49,-3.10
2014,11,15,01,50,-3.10
2014,11,15,01,51,-3.10
2014,11,15,01,52,-3.10
2014,11,15,01,53,-3.10
2014,11,15,01,54,-3.10
2014,11,15,01,55,-3.00
2014,11,15,01,56,-3.00
2014,11,15,01,57,-3.00
2014,11,15,01,58,-3.10
2014,11,15,01,59,-3.00
2014,11,15,02,00,-3.00
2014,11,15,02,01,-3.10
2014,11,15,02,02,-3.10
2014,11,15,02,03,-3.10
2014,11,15,02,04,-3.00
2014,11,15,02,05,-3.00
2014,11,15,02,06,-3.00
2014,11,15,02,07,-3.00
2014,11,15,02,08,-2.90
2014,11,15,02,09,-2.90
2014,11,15,02,10,-2.90
2014,11,15,02,11,-2.90
2014,11,15,02,12,-2.80
2014,11,15,02,13,-2.80
2014,11,15,02,14,-2.80
2014,11,15,02,15,-2.80
2014,11,15,02,16,-2.80
2014,11,15,02,17,-2.70
2014,11,15,02,18,-2.70
2014,11,15,02,19,-2.70
2014,11,15,02,20,-2.70
2014,11,15,02,21,-2.70
2014,11,15,02,22,-2.70
2014,11,15,02,23,-2.60
2014,11,15,02,24,-2.60
2014,11,15,02,25,-2.60
2014,11,15,02,26,-2.60
2014,11,15,02,27,-2.60
2014,11,15,02,28,-2.60
2014,11,15,02,29,-2.60
2014,11,15,02,30,-2.60
2014,11,15,02,31,-2.70
2014,11,15,02,32,-2.70
2014,11,15,02,33,-2.70
2014,11,15,02,34,-2.70
2014,11,15,02,35,-2.70
2014,11,15,02,36,-2.70
2014,11,15,02,37,-2.70
2014,11,15,02,38,-2.70
2014,11,15,02,39,-2.70
2014,11,15,02,40,-2.70
2014,11,15,02,41,-2.70
2014,11,15,02,42,-2.70
2014,11,15,02,43,-2.70
2014,11,15,02,44,-2.70
2014,11,15,02,45,-2.60
2014,11,15,02,46,-2.60
2014,11,15,02,47,-2.50
2014,11,15,02,48,-2.50
2014,11,15,02,49,-2.50
2014,11,15,02,50,-2.50
2014,11,15,02,51,-2.50
2014,11,15,02,52,-2.50
2014,11,15,02,53,-2.50
2014,11,15,02,54,-2.50
2014,11,15,02,55,-2.60
2014,11,15,02,56,-2.60
2014,11,15,02,57,-2.60
2014,11,15,02,58,-2.60
2014,11,15,02,59,-2.60
2014,11,15,03,00,-2.60
2014,11,15,03,01,-2.60
2014,11,15,03,02,-2.70
2014,11,15,03,03,-2.70
2014,11,15,03,04,-2.70
2014,11,15,03,05,-2.70
2014,11,15,03,06,-2.70
2014,11,15,03,07,-2.70
2014,11,15,03,08,-2.70
2014,11,15,03,09,-2.70
2014,11,15,03,10,-2.70
2014,11,15,03,11,-2.70
2014,11,15,03,12,-2.70
2014,11,15,03,13,-2.70
2014,11,15,03,14,-2.70
2014,11,15,03,15,-2.70
2014,11,15,03,16,-2.70
2014,11,15,03,17,-2.70
2014,11,15,03,18,-2.70
2014,11,15,03,19,-2.70
2014,11,15,03,20,-2.70
2014,11,15,03,21,-2.70
2014,11,15,03,22,-2.70
2014,11,15,03,23,-2.70
2014,11,15,03,24,-2.70
2014,11,15,03,25,-2.70
2014,11,15,03,26,-2.60
2014,11,15,03,27,-2.50
2014,11,15,03,28,-2.50
2014,11,15,03,29,-2.40
2014,11,15,03,30,-2.40
2014,11,15,03,31,-2.30
2014,11,15,03,32,-2.30
2014,11,15,03,33,-2.30
2014,11,15,03,34,-2.30
2014,11,15,03,35,-2.30
2014,11,15,03,36,-2.30
2014,11,15,03,37,-2.30
2014,11,15,03,38,-2.30
2014,11,15,03,39,-2.30
2014,11,15,03,40,-2.30
2014,11,15,03,41,-2.30
2014,11,15,03,42,-2.20
2014,11,15,03,43,-2.20
2014,11,15,03,44,-2.20
2014,11,15,03,45,-2.20
2014,11,15,03,46,-2.20
2014,11,15,03,47,-2.20
2014,11,15,03,48,-2.20
2014,11,15,03,49,-2.20
2014,11,15,03,50,-2.10
2014,11,15,03,51,-2.10
2014,11,15,03,52,-2.00
2014,11,15,03,53,-1.90
2014,11,15,03,54,-1.90
2014,11,15,03,55,-1.90
2014,11,15,03,56,-1.90
2014,11,15,03,57,-1.90
2014,11,15,03,58,-1.90
2014,11,15,03,59,-1.90
2014,11,15,04,00,-1.90
2014,11,15,04,01,-1.90
2014,11,15,04,02,-1.80
2014,11,15,04,03,-1.80
2014,11,15,04,04,-1.80
2014,11,15,04,05,-1.80
2014,11,15,04,06,-1.80
2014,11,15,04,07,-1.80
2014,11,15,04,08,-1.80
2014,11,15,04,09,-1.90
2014,11,15,04,10,-1.90
2014,11,15,04,11,-1.90
2014,11,15,04,12,-1.90
2014,11,15,04,13,-1.80
2014,11,15,04,14,-1.80
2014,11,15,04,15,-1.80
2014,11,15,04,16,-1.80
2014,11,15,04,17,-1.80
2014,11,15,04,18,-1.80
2014,11,15,04,19,-1.80
2014,11,15,04,20,-1.80
2014,11,15,04,21,-1.80
2014,11,15,04,22,-1.80
2014,11,15,04,23,-1.80
2014,11,15,04,24,-1.80
2014,11,15,04,25,-1.90
2014,11,15,04,26,-1.90
2014,11,15,04,27,-1.90
2014,11,15,04,28,-1.90
2014,11,15,04,29,-1.90
2014,11,15,04,30,-1.90
2014,11,15,04,31,-1.90
2014,11,15,04,32,-1.90
2014,11,15,04,33,-2.00
2014,11,15,04,34,-2.00
2014,11,15,04,35,-1.90
2014,11,15,04,36,-2.00
2014,11,15,04,37,-2.00
2014,11,15,04,38,-2.00
2014,11,15,04,39,-2.00
2014,11,15,04,40,-2.00
2014,11,15,04,41,-2.10
2014,11,15,04,42,-2.10
2014,11,15,04,43,-2.10
2014,11,15,04,44,-2.10
2014,11,15,04,45,-2.10
2014,11,15,04,46,-2.10
2014,11,15,04,47,-2.10
2014,11,15,04,48,-2.10
2014,11,15,04,49,-2.10
2014,11,15,04,50,-2.10
2014,11,15,04,51,-2.10
2014,11,15,04,52,-2.10
2014,11,15,04,53,-2.10
2014,11,15,04,54,-2.10
2014,11,15,04,55,-2.10
2014,11,15,04,56,-2.10
2014,11,15,04,57,-2.10
2014,11,15,04,58,-2.10
2014,11,15,04,59,-2.10
2014,11,15,05,00,-2.10
2014,11,15,05,01,-2.00
2014,11,15,05,02,-2.00
2014,11,15,05,03,-2.00
2014,11,15,05,04,-1.90
2014,11,15,05,05,-2.00
2014,11,15,05,06,-2.00
2014,11,15,05,07,-2.00
2014,11,15,05,08,-2.00
2014,11,15,05,09,-2.10
2014,11,15,05,10,-2.10
2014,11,15,05,11,-2.10
2014,11,15,05,12,-2.10
2014,11,15,05,13,-2.20
2014,11,15,05,14,-2.20
2014,11,15,05,15,-2.20
2014,11,15,05,16,-2.30
2014,11,15,05,17,-2.30
2014,11,15,05,18,-2.30
2014,11,15,05,19,-2.30
2014,11,15,05,20,-2.40
2014,11,15,05,21,-2.40
2014,11,15,05,22,-2.40
2014,11,15,05,23,-2.40
2014,11,15,05,24,-2.40
2014,11,15,05,25,-2.40
2014,11,15,05,26,-2.40
2014,11,15,05,27,-2.40
2014,11,15,05,28,-2.40
2014,11,15,05,29,-2.40
2014,11,15,05,30,-2.40
2014,11,15,05,31,-2.40
2014,11,15,05,32,-2.40
2014,11,15,05,33,-2.40
2014,11,15,05,34,-2.40
2014,11,15,05,35,-2.40
2014,11,15,05,36,-2.40
2014,11,15,05,37,-2.50
2014,11,15,05,38,-2.50
2014,11,15,05,39,-2.50
2014,11,15,05,40,-2.50
2014,11,15,05,41,-2.50
2014,11,15,05,42,-2.60
2014,11,15,05,43,-2.60
2014,11,15,05,44,-2.60
2014,11,15,05,45,-2.60
2014,11,15,05,46,-2.70
2014,11,15,05,47,-2.70
2014,11,15,05,48,-2.70
2014,11,15,05,49,-2.70
2014,11,15,05,50,-2.80
2014,11,15,05,51,-2.80
2014,11,15,05,52,-2.80
2014,11,15,05,53,-2.80
2014,11,15,05,54,-2.80
2014,11,15,05,55,-2.80
2014,11,15,05,56,-2.80
2014,11,15,05,57,-2.80
2014,11,15,05,58,-2.80
2014,11,15,05,59,-2.80
2014,11,15,06,00,-2.90
2014,11,15,06,01,-3.00
2014,11,15,06,02,-3.00
2014,11,15,06,03,-3.10
2014,11,15,06,04,-3.10
2014,11,15,06,05,-3.10
2014,11,15,06,06,-3.10
2014,11,15,06,07,-3.10
2014,11,15,06,08,-3.10
2014,11,15,06,09,-3.10
2014,11,15,06,10,-3.10
2014,11,15,06,11,-3.10
2014,11,15,06,12,-3.10
2014,11,15,06,13,-3.10
2014,11,15,06,14,-3.10
2014,11,15,06,15,-3.20
2014,11,15,06,16,-3.20
2014,11,15,06,17,-3.20
2014,11,15,06,18,-3.30
2014,11,15,06,19,-3.30
2014,11,15,06,20,-3.30
2014,11,15,06,21,-3.30
2014,11,15,06,22,-3.30
2014,11,15,06,23,-3.30
2014,11,15,06,24,-3.30
2014,11,15,06,25,-3.30
2014,11,15,06,26,-3.30
2014,11,15,06,27,-3.30
2014,11,15,06,28,-3.30
2014,11,15,06,29,-3.30
2014,11,15,06,30,-3.40
2014,11,15,06,31,-3.40
2014,11,15,06,32,-3.40
2014,11,15,06,33,-3.40
2014,11,15,06,34,-3.40
2014,11,15,06,35,-3.50
2014,11,15,06,36,-3.50
2014,11,15,06,37,-3.50
2014,11,15,06,38,-3.60
2014,11,15,06,39,-3.60
2014,11,15,06,40,-3.60
2014,11,15,06,41,-3.60
2014,11,15,06,42,-3.60
2014,11,15,06,43,-3.60
2014,11,15,06,44,-3.60
2014,11,15,06,45,-3.50
2014,11,15,06,46,-3.50
2014,11,15,06,47,-3.50
2014,11,15,06,48,-3.50
2014,11,15,06,49,-3.40
2014,11,15,06,50,-3.40
2014,11,15,06,51,-3.40
2014,11,15,06,52,-3.40
2014,11,15,06,53,-3.40
2014,11,15,06,54,-3.40
2014,11,15,06,55,-3.40
2014,11,15,06,56,-3.40
2014,11,15,06,57,-3.40
2014,11,15,06,58,-3.40
2014,11,15,06,59,-3.40
2014,11,15,07,00,-3.40
2014,11,15,07,01,-3.50
2014,11,15,07,02,-3.50
2014,11,15,07,03,-3.50
2014,11,15,07,04,-3.50
2014,11,15,07,05,-3.50
2014,11,15,07,06,-3.50
2014,11,15,07,07,-3.40
2014,11,15,07,08,-3.40
2014,11,15,07,09,-3.40
2014,11,15,07,10,-3.40
2014,11,15,07,11,-3.40
2014,11,15,07,12,-3.40
2014,11,15,07,13,-3.40
2014,11,15,07,14,-3.40
2014,11,15,07,15,-3.40
2014,11,15,07,16,-3.40
2014,11,15,07,17,-3.40
2014,11,15,07,18,-3.40
2014,11,15,07,19,-3.40
2014,11,15,07,20,-3.30
2014,11,15,07,21,-3.30
2014,11,15,07,22,-3.30
2014,11,15,07,23,-3.30
2014,11,15,07,24,-3.30
2014,11,15,07,25,-3.30
2014,11,15,07,26,-3.30
2014,11,15,07,27,-3.20
2014,11,15,07,28,-3.20
2014,11,15,07,29,-3.20
2014,11,15,07,30,-3.20
2014,11,15,07,31,-3.20
2014,11,15,07,32,-3.20
2014,11,15,07,33,-3.20
2014,11,15,07,34,-3.20
2014,11,15,07,35,-3.20
2014,11,15,07,36,-3.20
2014,11,15,07,37,-3.20
2014,11,15,07,38,-3.20
2014,11,15,07,39,-3.10
2014,11,15,07,40,-3.10
2014,11,15,07,41,-3.10
2014,11,15,07,42,-3.10
2014,11,15,07,43,-3.00
2014,11,15,07,44,-3.00
2014,11,15,07,45,-3.00
2014,11,15,07,46,-2.90
2014,11,15,07,47,-2.90
2014,11,15,07,48,-2.80
2014,11,15,07,49,-2.80
2014,11,15,07,50,-2.80
2014,11,15,07,51,-2.80
2014,11,15,07,52,-2.80
2014,11,15,07,53,-2.70
2014,11,15,07,54,-2.70
2014,11,15,07,55,-2.70
2014,11,15,07,56,-2.60
2014,11,15,07,57,-2.50
2014,11,15,07,58,-2.50
2014,11,15,07,59,-2.40
2014,11,15,08,00,-2.40
2014,11,15,08,01,-2.30
2014,11,15,08,02,-2.30
2014,11,15,08,03,-2.30
2014,11,15,08,04,-2.30
2014,11,15,08,05,-2.30
2014,11,15,08,06,-2.30
2014,11,15,08,07,-2.30
2014,11,15,08,08,-2.30
2014,11,15,08,09,-2.30
2014,11,15,08,10,-2.20
2014,11,15,08,11,-2.20
2014,11,15,08,12,-2.20
2014,11,15,08,13,-2.20
2014,11,15,08,14,-2.20
2014,11,15,08,15,-2.20
2014,11,15,08,16,-2.20
2014,11,15,08,17,-2.20
2014,11,15,08,18,-2.20
2014,11,15,08,19,-2.20
2014,11,15,08,20,-2.20
2014,11,15,08,21,-2.20
2014,11,15,08,22,-2.20
2014,11,15,08,23,-2.20
2014,11,15,08,24,-2.20
2014,11,15,08,25,-2.20
2014,11,15,08,26,-2.10
2014,11,15,08,27,-2.10
2014,11,15,08,28,-2.10
2014,11,15,08,29,-2.10
2014,11,15,08,30,-2.10
2014,11,15,08,31,-2.00
2014,11,15,08,32,-2.00
2014,11,15,08,33,-2.00
2014,11,15,08,34,-1.90
2014,11,15,08,35,-1.90
2014,11,15,08,36,-1.90
2014,11,15,08,37,-1.90
2014,11,15,08,38,-1.80
2014,11,15,08,39,-1.80
2014,11,15,08,40,-1.80
2014,11,15,08,41,-1.80
2014,11,15,08,42,-1.80
2014,11,15,08,43,-1.70
2014,11,15,08,44,-1.70
2014,11,15,08,45,-1.70
2014,11,15,08,46,-1.70
2014,11,15,08,47,-1.70
2014,11,15,08,48,-1.70
2014,11,15,08,49,-1.60
2014,11,15,08,50,-1.60
2014,11,15,08,51,-1.60
2014,11,15,08,52,-1.50
2014,11,15,08,53,-1.50
2014,11,15,08,54,-1.40
2014,11,15,08,55,-1.40
2014,11,15,08,56,-1.40
2014,11,15,08,57,-1.30
2014,11,15,08,58,-1.30
2014,11,15,08,59,-1.30
2014,11,15,09,00,-1.30
2014,11,15,09,01,-1.30
2014,11,15,09,02,-1.30
2014,11,15,09,03,-1.30
2014,11,15,09,04,-1.30
2014,11,15,09,05,-1.30
2014,11,15,09,06,-1.20
2014,11,15,09,07,-1.20
2014,11,15,09,08,-1.20
2014,11,15,09,09,-1.20
2014,11,15,09,10,-1.20
2014,11,15,09,11,-1.20
2014,11,15,09,12,-1.10
2014,11,15,09,13,-1.10
2014,11,15,09,14,-1.10
2014,11,15,09,15,-1.10
2014,11,15,09,16,-1.10
2014,11,15,09,17,-1.10
2014,11,15,09,18,-1.10
2014,11,15,09,19,-1.10
2014,11,15,09,20,-1.10
2014,11,15,09,21,-1.10
2014,11,15,09,22,-1.00
2014,11,15,09,23,-1.00
2014,11,15,09,24,-1.00
2014,11,15,09,25,-1.00
2014,11,15,09,26,-1.00
2014,11,15,09,27,-0.90
2014,11,15,09,28,-0.90
2014,11,15,09,29,-0.90
2014,11,15,09,30,-0.90
2014,11,15,09,31,-0.90
2014,11,15,09,32,-0.90
2014,11,15,09,33,-0.90
2014,11,15,09,34,-0.80
2014,11,15,09,35,-0.80
2014,11,15,09,36,-0.80
2014,11,15,09,37,-0.80
2014,11,15,09,38,-0.80
2014,11,15,09,39,-0.80
2014,11,15,09,40,-0.80
2014,11,15,09,41,-0.80
2014,11,15,09,42,-0.80
2014,11,15,09,43,-0.70
2014,11,15,09,44,-0.70
2014,11,15,09,45,-0.70
2014,11,15,09,46,-0.70
2014,11,15,09,47,-0.60
2014,11,15,09,48,-0.60
2014,11,15,09,49,-0.50
2014,11,15,09,50,-0.50
2014,11,15,09,51,-0.40
2014,11,15,09,52,-0.40
2014,11,15,09,53,-0.30
2014,11,15,09,54,-0.30
2014,11,15,09,55,-0.30
2014,11,15,09,56,-0.20
2014,11,15,09,57,-0.20
2014,11,15,09,58,-0.20
2014,11,15,09,59,-0.20
2014,11,15,10,00,-0.10
2014,11,15,10,01,-0.10
2014,11,15,10,02,-0.10
2014,11,15,10,03,0.00
2014,11,15,10,04,0.00
2014,11,15,10,05,0.10
2014,11,15,10,06,0.10
2014,11,15,10,07,0.20
2014,11,15,10,08,0.20
2014,11,15,10,09,0.20
2014,11,15,10,10,0.30
2014,11,15,10,11,0.30
2014,11,15,10,12,0.30
2014,11,15,10,13,0.40
2014,11,15,10,14,0.40
2014,11,15,10,15,0.40
2014,11,15,10,16,0.50
2014,11,15,10,17,0.50
2014,11,15,10,18,0.60
2014,11,15,10,19,0.60
2014,11,15,10,20,0.60
2014,11,15,10,21,0.70
2014,11,15,10,22,0.70
2014,11,15,10,23,0.70
2014,11,15,10,24,0.80
2014,11,15,10,25,0.80
2014,11,15,10,26,0.80
2014,11,15,10,27,0.80
2014,11,15,10,28,0.90
2014,11,15,10,29,0.90
2014,11,15,10,30,0.90
2014,11,15,10,31,1.00
2014,11,15,10,32,1.00
2014,11,15,10,33,1.10
2014,11,15,10,34,1.10
2014,11,15,10,35,1.10
2014,11,15,10,36,1.20
2014,11,15,10,37,1.20
2014,11,15,10,38,1.20
2014,11,15,10,39,1.30
2014,11,15,10,40,1.30
2014,11,15,10,41,1.40
2014,11,15,10,42,1.40
2014,11,15,10,43,1.40
2014,11,15,10,44,1.40
2014,11,15,10,45,1.50
2014,11,15,10,46,1.50
2014,11,15,10,47,1.60
2014,11,15,10,48,1.60
2014,11,15,10,49,1.60
2014,11,15,10,50,1.70
2014,11,15,10,51,1.70
2014,11,15,10,52,1.70
2014,11,15,10,53,1.80
2014,11,15,10,54,1.80
2014,11,15,10,55,1.80
2014,11,15,10,56,1.80
2014,11,15,10,57,1.90
2014,11,15,10,58,1.90
2014,11,15,10,59,1.90
2014,11,15,11,00,2.00
2014,11,15,11,01,2.00
2014,11,15,11,02,2.10
2014,11,15,11,03,2.10
2014,11,15,11,04,2.10
2014,11,15,11,05,2.20
2014,11,15,11,06,2.20
2014,11,15,11,07,2.30
2014,11,15,11,08,2.30
2014,11,15,11,09,2.40
2014,11,15,11,10,2.40
2014,11,15,11,11,2.50
2014,11,15,11,12,2.60
2014,11,15,11,13,2.60
2014,11,15,11,14,2.70
2014,11,15,11,15,2.70
2014,11,15,11,16,2.80
2014,11,15,11,17,2.80
2014,11,15,11,18,2.90
2014,11,15,11,19,3.00
2014,11,15,11,20,3.00
2014,11,15,11,21,3.10
2014,11,15,11,22,3.10
2014,11,15,11,23,3.20
2014,11,15,11,24,3.20
2014,11,15,11,25,3.20
2014,11,15,11,26,3.30
2014,11,15,11,27,3.30
2014,11,15,11,28,3.30
2014,11,15,11,29,3.40
2014,11,15,11,30,3.40
2014,11,15,11,31,3.40
2014,11,15,11,32,3.50
2014,11,15,11,33,3.50
2014,11,15,11,34,3.60
2014,11,15,11,35,3.60
2014,11,15,11,36,3.60
2014,11,15,11,37,3.70
2014,11,15,11,38,3.70
2014,11,15,11,39,3.70
2014,11,15,11,40,3.80
2014,11,15,11,41,3.80
2014,11,15,11,42,3.80
2014,11,15,11,43,3.80
2014,11,15,11,44,3.90
2014,11,15,11,45,3.90
2014,11,15,11,46,3.90
2014,11,15,11,47,3.90
2014,11,15,11,48,4.00
2014,11,15,11,49,4.00
2014,11,15,11,50,4.00
2014,11,15,11,51,4.00
2014,11,15,11,52,4.00
2014,11,15,11,53,4.00
2014,11,15,11,54,4.10
2014,11,15,11,55,4.10
2014,11,15,11,56,4.10
2014,11,15,11,57,4.10
2014,11,15,11,58,4.10
2014,11,15,11,59,4.10
2014,11,15,12,00,4.20
2014,11,15,12,01,4.20
2014,11,15,12,02,4.20
2014,11,15,12,03,4.20
2014,11,15,12,04,4.20
2014,11,15,12,05,4.20
2014,11,15,12,06,4.20
2014,11,15,12,07,4.30
2014,11,15,12,08,4.30
2014,11,15,12,09,4.30
2014,11,15,12,10,4.30
2014,11,15,12,11,4.40
2014,11,15,12,12,4.40
2014,11,15,12,13,4.40
2014,11,15,12,14,4.50
2014,11,15,12,15,4.50
2014,11,15,12,16,4.50
2014,11,15,12,17,4.60
2014,11,15,12,18,4.60
2014,11,15,12,19,4.60
2014,11,15,12,20,4.60
2014,11,15,12,21,4.60
2014,11,15,12,22,4.60
2014,11,15,12,23,4.60
2014,11,15,12,24,4.60
2014,11,15,12,25,4.60
2014,11,15,12,26,4.70
2014,11,15,12,27,4.70
2014,11,15,12,28,4.70
2014,11,15,12,29,4.70
2014,11,15,12,30,4.80
2014,11,15,12,31,4.80
2014,11,15,12,32,4.80
2014,11,15,12,33,4.80
2014,11,15,12,34,4.90
2014,11,15,12,35,4.90
2014,11,15,12,36,4.90
2014,11,15,12,37,4.90
2014,11,15,12,38,4.90
2014,11,15,12,39,4.90
2014,11,15,12,40,5.00
2014,11,15,12,41,5.00
2014,11,15,12,42,5.00
2014,11,15,12,43,5.10
2014,11,15,12,44,5.10
2014,11,15,12,45,5.10
2014,11,15,12,46,5.00
2014,11,15,12,47,5.00
2014,11,15,12,48,5.00
2014,11,15,12,49,5.00
2014,11,15,12,50,5.10
2014,11,15,12,51,5.10
2014,11,15,12,52,5.00
2014,11,15,12,53,5.00
2014,11,15,12,54,5.10
2014,11,15,12,55,5.10
2014,11,15,12,56,5.10
2014,11,15,12,57,5.10
2014,11,15,12,58,5.10
2014,11,15,12,59,5.10
2014,11,15,13,00,5.10
2014,11,15,13,01,5.10
2014,11,15,13,02,5.10
2014,11,15,13,03,5.10
2014,11,15,13,04,5.10
2014,11,15,13,05,5.10
2014,11,15,13,06,5.10
2014,11,15,13,07,5.10
2014,11,15,13,08,5.10
2014,11,15,13,09,5.10
2014,11,15,13,10,5.10
2014,11,15,13,11,5.10
2014,11,15,13,12,5.20
2014,11,15,13,13,5.20
2014,11,15,13,14,5.20
2014,11,15,13,15,5.20
2014,11,15,13,16,5.20
2014,11,15,13,17,5.20
2014,11,15,13,18,5.20
2014,11,15,13,19,5.20
2014,11,15,13,20,5.20
2014,11,15,13,21,5.20
2014,11,15,13,22,5.20
2014,11,15,13,23,5.20
2014,11,15,13,24,5.20
2014,11,15,13,25,5.20
2014,11,15,13,26,5.20
2014,11,15,13,27,5.20
2014,11,15,13,28,5.20
2014,11,15,13,29,5.20
2014,11,15,13,30,5.30
2014,11,15,13,31,5.30
2014,11,15,13,32,5.30
2014,11,15,13,33,5.30
2014,11,15,13,34,5.30
2014,11,15,13,35,5.30
2014,11,15,13,36,5.30
2014,11,15,13,37,5.30
2014,11,15,13,38,5.30
2014,11,15,13,39,5.30
2014,11,15,13,40,5.30
2014,11,15,13,41,5.30
2014,11,15,13,42,5.30
2014,11,15,13,43,5.30
2014,11,15,13,44,5.30
2014,11,15,13,45,5.30
2014,11,15,13,46,5.30
2014,11,15,13,47,5.30
2014,11,15,13,48,5.30
2014,11,15,13,49,5.30
2014,11,15,13,50,5.30
2014,11,15,13,51,5.30
2014,11,15,13,52,5.30
2014,11,15,13,53,5.30
2014,11,15,13,54,5.30
2014,11,15,13,55,5.30
2014,11,15,13,56,5.30
2014,11,15,13,57,5.30
2014,11,15,13,58,5.30
2014,11,15,13,59,5.30
2014,11,15,14,00,5.30
2014,11,15,14,01,5.40
2014,11,15,14,02,5.30
2014,11,15,14,03,5.30
2014,11,15,14,04,5.30
2014,11,15,14,05,5.30
2014,11,15,14,06,5.40
2014,11,15,14,07,5.40
2014,11,15,14,08,5.40
2014,11,15,14,09,5.50
2014,11,15,14,10,5.50
2014,11,15,14,11,5.50
2014,11,15,14,12,5.40
2014,11,15,14,13,5.40
2014,11,15,14,14,5.40
2014,11,15,14,15,5.50
2014,11,15,14,16,5.50
2014,11,15,14,17,5.50
2014,11,15,14,18,5.40
2014,11,15,14,19,5.40
2014,11,15,14,20,5.40
2014,11,15,14,21,5.50
2014,11,15,14,22,5.50
2014,11,15,14,23,5.50
2014,11,15,14,24,5.50
2014,11,15,14,25,5.50
2014,11,15,14,26,5.50
2014,11,15,14,27,5.50
2014,11,15,14,28,5.50
2014,11,15,14,29,5.50
2014,11,15,14,30,5.40
2014,11,15,14,31,5.40
2014,11,15,14,32,5.40
2014,11,15,14,33,5.50
2014,11,15,14,34,5.50
2014,11,15,14,35,5.50
2014,11,15,14,36,5.50
2014,11,15,14,37,5.60
2014,11,15,14,38,5.60
2014,11,15,14,39,5.60
2014,11,15,14,40,5.60
2014,11,15,14,41,5.60
2014,11,15,14,42,5.60
2014,11,15,14,43,5.70
2014,11,15,14,44,5.70
2014,11,15,14,45,5.60
2014,11,15,14,46,5.60
2014,11,15,14,47,5.60
2014,11,15,14,48,5.60
2014,11,15,14,49,5.60
2014,11,15,14,50,5.60
2014,11,15,14,51,5.50
2014,11,15,14,52,5.50
2014,11,15,14,53,5.60
2014,11,15,14,54,5.60
2014,11,15,14,55,5.60
2014,11,15,14,56,5.60
2014,11,15,14,57,5.60
2014,11,15,14,58,5.60
2014,11,15,14,59,5.60
2014,11,15,15,00,5.60
2014,11,15,15,01,5.60
2014,11,15,15,02,5.60
2014,11,15,15,03,5.60
2014,11,15,15,04,5.60
2014,11,15,15,05,5.50
2014,11,15,15,06,5.50
2014,11,15,15,07,5.50
2014,11,15,15,08,5.40
2014,11,15,15,09,5.40
2014,11,15,15,10,5.40
2014,11,15,15,11,5.40
2014,11,15,15,12,5.40
2014,11,15,15,13,5.30
2014,11,15,15,14,5.30
2014,11,15,15,15,5.30
2014,11,15,15,16,5.30
2014,11,15,15,17,5.30
2014,11,15,15,18,5.30
2014,11,15,15,19,5.30
2014,11,15,15,20,5.30
2014,11,15,15,21,5.40
2014,11,15,15,22,5.40
2014,11,15,15,23,5.40
2014,11,15,15,24,5.40
2014,11,15,15,25,5.40
2014,11,15,15,26,5.40
2014,11,15,15,27,5.50
2014,11,15,15,28,5.50
2014,11,15,15,29,5.50
2014,11,15,15,30,5.50
2014,11,15,15,31,5.50
2014,11,15,15,32,5.50
2014,11,15,15,33,5.50
2014,11,15,15,34,5.50
2014,11,15,15,35,5.50
2014,11,15,15,36,5.50
2014,11,15,15,37,5.50
2014,11,15,15,38,5.50
2014,11,15,15,39,5.50
2014,11,15,15,40,5.50
2014,11,15,15,41,5.50
2014,11,15,15,42,5.50
2014,11,15,15,43,5.50
2014,11,15,15,44,5.60
2014,11,15,15,45,5.60
2014,11,15,15,46,5.50
2014,11,15,15,47,5.50
2014,11,15,15,48,5.50
2014,11,15,15,49,5.50
2014,11,15,15,50,5.50
2014,11,15,15,51,5.50
2014,11,15,15,52,5.50
2014,11,15,15,53,5.50
2014,11,15,15,54,5.50
2014,11,15,15,55,5.50
2014,11,15,15,56,5.50
2014,11,15,15,57,5.50
2014,11,15,15,58,5.50
2014,11,15,15,59,5.60
2014,11,15,16,00,5.60
2014,11,15,16,01,5.60
2014,11,15,16,02,5.60
2014,11,15,16,03,5.60
2014,11,15,16,04,5.60
2014,11,15,16,05,5.60
2014,11,15,16,06,5.60
2014,11,15,16,07,5.60
2014,11,15,16,08,5.60
2014,11,15,16,09,5.50
2014,11,15,16,10,5.50
2014,11,15,16,11,5.50
2014,11,15,16,12,5.50
2014,11,15,16,13,5.40
2014,11,15,16,14,5.40
2014,11,15,16,15,5.40
2014,11,15,16,16,5.30
2014,11,15,16,17,5.30
2014,11,15,16,18,5.30
2014,11,15,16,19,5.20
2014,11,15,16,20,5.20
2014,11,15,16,21,5.10
2014,11,15,16,22,5.10
2014,11,15,16,23,5.00
2014,11,15,16,24,5.00
2014,11,15,16,25,4.90
2014,11,15,16,26,4.80
2014,11,15,16,27,4.70
2014,11,15,16,28,4.70
2014,11,15,16,29,4.60
2014,11,15,16,30,4.50
2014,11,15,16,31,4.40
2014,11,15,16,32,4.30
2014,11,15,16,33,4.30
2014,11,15,16,34,4.20
2014,11,15,16,35,4.10
2014,11,15,16,36,4.00
2014,11,15,16,37,3.90
2014,11,15,16,38,3.90
2014,11,15,16,39,3.80
2014,11,15,16,40,3.70
2014,11,15,16,41,3.60
2014,11,15,16,42,3.50
2014,11,15,16,43,3.50
2014,11,15,16,44,3.40
2014,11,15,16,45,3.30
2014,11,15,16,46,3.30
2014,11,15,16,47,3.20
2014,11,15,16,48,3.20
2014,11,15,16,49,3.10
2014,11,15,16,50,3.10
2014,11,15,16,51,3.00
2014,11,15,16,52,3.00
2014,11,15,16,53,2.90
2014,11,15,16,54,2.90
2014,11,15,16,55,2.80
2014,11,15,16,56,2.80
2014,11,15,16,57,2.70
2014,11,15,16,58,2.70
2014,11,15,16,59,2.60
2014,11,15,17,00,2.50
2014,11,15,17,01,2.50
2014,11,15,17,02,2.40
2014,11,15,17,03,2.40
2014,11,15,17,04,2.30
2014,11,15,17,05,2.30
2014,11,15,17,06,2.20
2014,11,15,17,07,2.20
2014,11,15,17,08,2.10
2014,11,15,17,09,2.10
2014,11,15,17,10,2.00
2014,11,15,17,11,2.00
2014,11,15,17,12,1.90
2014,11,15,17,13,1.90
2014,11,15,17,14,1.80
2014,11,15,17,15,1.80
2014,11,15,17,16,1.80
2014,11,15,17,17,1.70
2014,11,15,17,18,1.70
2014,11,15,17,19,1.60
2014,11,15,17,20,1.60
2014,11,15,17,21,1.60
2014,11,15,17,22,1.50
2014,11,15,17,23,1.50
2014,11,15,17,24,1.40
2014,11,15,17,25,1.40
2014,11,15,17,26,1.30
2014,11,15,17,27,1.30
2014,11,15,17,28,1.30
2014,11,15,17,29,1.20
2014,11,15,17,30,1.20
2014,11,15,17,31,1.10
2014,11,15,17,32,1.10
2014,11,15,17,33,1.10
2014,11,15,17,34,1.00
2014,11,15,17,35,1.00
2014,11,15,17,36,1.00
2014,11,15,17,37,0.90
2014,11,15,17,38,0.90
2014,11,15,17,39,0.90